This is the latest recevied weather packets stored in our database for station/object IU2EVW-13. If no packets are shown the sender has not sent any weather packets the latest 1 day(s).
| Time | Temp. | Humidity | Pressure | Rain* | Wind** | Luminosity | Snow |
|---|---|---|---|---|---|---|---|
| 1777761643 | 12.22° C | 51% | 1023.9 hPa | - | - | - | - |
| 1777760442 | 12.22° C | 50% | 1024 hPa | - | - | - | - |
| 1777759240 | 12.78° C | 51% | 1024 hPa | - | - | - | - |
| 1777758039 | 12.78° C | 49% | 1023.9 hPa | - | - | - | - |
| 1777756838 | 12.78° C | 49% | 1023.8 hPa | - | - | - | - |
| 1777755636 | 13.89° C | 46% | 1023.7 hPa | - | - | - | - |
| 1777754435 | 13.89° C | 46% | 1023.7 hPa | - | - | - | - |
| 1777753233 | 13.89° C | 44% | 1023.6 hPa | - | - | - | - |
| 1777752032 | 14.44° C | 43% | 1023.6 hPa | - | - | - | - |
| 1777750830 | 15° C | 42% | 1023.4 hPa | - | - | - | - |
| 1777749629 | 15° C | 40% | 1023.1 hPa | - | - | - | - |
| 1777748428 | 15.56° C | 40% | 1023 hPa | - | - | - | - |
| 1777747226 | 15.56° C | 39% | 1022.6 hPa | - | - | - | - |
| 1777746025 | 16.67° C | 38% | 1022.3 hPa | - | - | - | - |
| 1777744824 | 17.22° C | 36% | 1022.3 hPa | - | - | - | - |
| 1777743622 | 21.11° C | 30% | 1021.9 hPa | - | - | - | - |
| 1777742421 | 22.78° C | 26% | 1021.7 hPa | - | - | - | - |
| 1777741220 | 23.89° C | 24% | 1021.7 hPa | - | - | - | - |
| 1777740018 | 24.44° C | 25% | 1021.7 hPa | - | - | - | - |
| 1777738817 | 25° C | 22% | 1021.8 hPa | - | - | - | - |
| 1777737615 | 25.56° C | 22% | 1022 hPa | - | - | - | - |
| 1777736414 | 25.56° C | 25% | 1022.1 hPa | - | - | - | - |
| 1777735213 | 25° C | 22% | 1022.3 hPa | - | - | - | - |
| 1777734011 | 27.22° C | 22% | 1022.4 hPa | - | - | - | - |
| 1777732810 | 26.67° C | 21% | 1022.6 hPa | - | - | - | - |
* Rain since midnight (hover to see other rain measurements)
** Current wind speed in m/s (hover to see current wind gust speed)